| time (UTC) | temp C | wind direction | speed KPH | gust KPH | rain 1hr cm | rain 24hr cm | rain mn cm | humidity % | barometer mb |
| 20260508231311 | 18 | 11 | 0.0 | 3.2 | 0.00 | 0.00 | 0.00 | 58 | 1012.7 |
| 20260508230808 | 18 | 31 | 1.6 | 1.6 | 0.00 | 0.00 | 0.00 | 56 | 1012.8 |
| 20260508230305 | 18 | 24 | 0.0 | 1.6 | 0.00 | 0.00 | 0.00 | 56 | 1012.7 |
| 20260508225803 | 18 | 61 | 3.2 | 3.2 | 0.00 | 0.00 | 0.00 | 54 | 1012.4 |
| 20260508225259 | 18 | 28 | 1.6 | 1.6 | 0.00 | 0.00 | 0.00 | 52 | 1012.5 |
| 20260508224757 | 18 | 51 | 3.2 | 3.2 | 0.00 | 0.00 | 0.00 | 51 | 1012.6 |
| 20260508224254 | 18 | 31 | 1.6 | 3.2 | 0.00 | 0.00 | 0.00 | 49 | 1012.6 |
| 20260508223752 | 18 | 35 | 1.6 | 1.6 | 0.00 | 0.00 | 0.00 | 51 | 1012.5 |
| 20260508223249 | 18 | 31 | 0.0 | 1.6 | 0.00 | 0.00 | 0.00 | 55 | 1012.6 |
| 20260508222746 | 18 | 29 | 0.0 | 1.6 | 0.00 | 0.00 | 0.00 | 55 | 1012.6 |
| 20260508222243 | 18 | 29 | 0.0 | 0.0 | 0.00 | 0.00 | 0.00 | 53 | 1012.5 |
| 20260508221740 | 18 | 29 | 0.0 | 1.6 | 0.00 | 0.00 | 0.00 | 53 | 1012.6 |
| 20260508221236 | 18 | 70 | 3.2 | 4.8 | 0.00 | 0.00 | 0.00 | 49 | 1012.4 |
| 20260508220731 | 18 | 31 | 0.0 | 1.6 | 0.00 | 0.00 | 0.00 | 49 | 1012.5 |
| 20260508220229 | 18 | 31 | 0.0 | 1.6 | 0.00 | 0.00 | 0.00 | 49 | 1012.4 |
| 20260508215725 | 19 | 24 | 0.0 | 1.6 | 0.00 | 0.00 | 0.00 | 49 | 1012.4 |
| 20260508215221 | 19 | 32 | 0.0 | 1.6 | 0.00 | 0.00 | 0.00 | 49 | 1012.3 |
| 20260508214719 | 19 | 18 | 0.0 | 3.2 | 0.00 | 0.00 | 0.00 | 49 | 1012.3 |
| 20260508214216 | 19 | 27 | 1.6 | 1.6 | 0.00 | 0.00 | 0.00 | 51 | 1012.4 |
| 20260508213712 | 19 | 37 | 3.2 | 3.2 | 0.00 | 0.00 | 0.00 | 47 | 1012.5 |
| 20260508213209 | 19 | 22 | 0.0 | 1.6 | 0.00 | 0.00 | 0.00 | 49 | 1012.7 |
| 20260508212705 | 19 | 20 | 0.0 | 3.2 | 0.00 | 0.00 | 0.00 | 51 | 1012.7 |
| 20260508212202 | 19 | 12 | 0.0 | 3.2 | 0.00 | 0.00 | 0.00 | 52 | 1012.7 |
| 20260508211657 | 19 | 16 | 0.0 | 1.6 | 0.00 | 0.00 | 0.00 | 51 | 1012.6 |
| 20260508211153 | 19 | 27 | 1.6 | 3.2 | 0.00 | 0.00 | 0.00 | 48 | 1012.7 |
| 20260508210651 | 19 | 26 | 3.2 | 3.2 | 0.00 | 0.00 | 0.00 | 47 | 1012.9 |
| 20260508210148 | 19 | 26 | 1.6 | 1.6 | 0.00 | 0.00 | 0.00 | 49 | 1013.1 |
| 20260508205645 | 19 | 30 | 3.2 | 3.2 | 0.00 | 0.00 | 0.00 | 50 | 1013.0 |
| 20260508205141 | 19 | 29 | 1.6 | 1.6 | 0.00 | 0.00 | 0.00 | 49 | 1013.3 |
| 20260508204638 | 19 | 27 | 1.6 | 1.6 | 0.00 | 0.00 | 0.00 | 46 | 1013.3 |
| 20260508204134 | 19 | 26 | 1.6 | 3.2 | 0.00 | 0.00 | 0.00 | 50 | 1013.3 |
| 20260508203630 | 19 | 77 | 3.2 | 4.8 | 0.00 | 0.00 | 0.00 | 46 | 1013.3 |
| 20260508203126 | 20 | 6 | 1.6 | 4.8 | 0.00 | 0.00 | 0.00 | 51 | 1013.5 |
| 20260508202622 | 20 | 15 | 1.6 | 3.2 | 0.00 | 0.00 | 0.00 | 46 | 1013.3 |
| 20260508202120 | 19 | 33 | 1.6 | 1.6 | 0.00 | 0.00 | 0.00 | 46 | 1013.4 |
| 20260508201617 | 19 | 22 | 0.0 | 1.6 | 0.00 | 0.00 | 0.00 | 51 | 1013.4 |
| 20260508201113 | 19 | 28 | 1.6 | 1.6 | 0.00 | 0.00 | 0.00 | 47 | 1013.3 |
| 20260508200610 | 19 | 355 | 1.6 | 3.2 | 0.00 | 0.00 | 0.00 | 45 | 1013.4 |
| 20260508200106 | 19 | 30 | 1.6 | 3.2 | 0.00 | 0.00 | 0.00 | 47 | 1013.5 |
| 20260508195603 | 19 | 5 | 3.2 | 4.8 | 0.00 | 0.00 | 0.00 | 46 | 1013.6 |
| 20260508195059 | 19 | 18 | 1.6 | 3.2 | 0.00 | 0.00 | 0.00 | 48 | 1013.6 |
| 20260508194556 | 19 | 122 | 3.2 | 4.8 | 0.00 | 0.00 | 0.00 | 44 | 1013.8 |
| 20260508194053 | 20 | 30 | 1.6 | 4.8 | 0.00 | 0.00 | 0.00 | 48 | 1013.6 |
| 20260508193549 | 20 | 40 | 1.6 | 4.8 | 0.00 | 0.00 | 0.00 | 44 | 1013.7 |
| 20260508193046 | 20 | 109 | 4.8 | 6.4 | 0.00 | 0.00 | 0.00 | 42 | 1013.9 |
| 20260508192543 | 20 | 100 | 4.8 | 6.4 | 0.00 | 0.00 | 0.00 | 41 | 1014.1 |
| 20260508192041 | 21 | 118 | 3.2 | 6.4 | 0.00 | 0.00 | 0.00 | 42 | 1013.9 |
| 20260508191537 | 20 | 1 | 1.6 | 4.8 | 0.00 | 0.00 | 0.00 | 45 | 1013.9 |
| 20260508191034 | 20 | 59 | 3.2 | 3.2 | 0.00 | 0.00 | 0.00 | 46 | 1013.9 |
| 20260508190531 | 20 | 36 | 1.6 | 3.2 | 0.00 | 0.00 | 0.00 | 45 | 1014.2 |
| 20260508190027 | 20 | 37 | 3.2 | 3.2 | 0.00 | 0.00 | 0.00 | 47 | 1014.4 |
| 20260508185525 | 20 | 37 | 0.0 | 3.2 | 0.00 | 0.00 | 0.00 | 45 | 1014.4 |
| 20260508185022 | 20 | 73 | 1.6 | 3.2 | 0.00 | 0.00 | 0.00 | 43 | 1014.6 |
| 20260508184520 | 20 | 63 | 3.2 | 3.2 | 0.00 | 0.00 | 0.00 | 47 | 1014.5 |
| 20260508184016 | 20 | 69 | 3.2 | 4.8 | 0.00 | 0.00 | 0.00 | 47 | 1014.5 |
| 20260508183513 | 21 | 67 | 3.2 | 11.3 | 0.00 | 0.00 | 0.00 | 43 | 1014.6 |
| 20260508183008 | 21 | 61 | 3.2 | 9.7 | 0.00 | 0.00 | 0.00 | 43 | 1014.7 |
| 20260508182505 | 20 | 287 | 6.4 | 9.7 | 0.00 | 0.00 | 0.00 | 55 | 1015.1 |
| 20260508182001 | 20 | 21 | 1.6 | 3.2 | 0.00 | 0.00 | 0.00 | 45 | 1014.9 |
| 20260508181457 | 20 | 128 | 4.8 | 6.4 | 0.00 | 0.00 | 0.00 | 45 | 1015.1 |
| 20260508180955 | 20 | 68 | 4.8 | 6.4 | 0.00 | 0.00 | 0.00 | 44 | 1015.2 |
| 20260508180452 | 20 | 66 | 3.2 | 9.7 | 0.00 | 0.00 | 0.00 | 45 | 1015.1 |
| 20260508175948 | 20 | 15 | 1.6 | 4.8 | 0.00 | 0.00 | 0.00 | 43 | 1015.2 |
| 20260508175444 | 20 | 33 | 1.6 | 3.2 | 0.00 | 0.00 | 0.00 | 47 | 1015.3 |
| 20260508174942 | 19 | 48 | 3.2 | 9.7 | 0.00 | 0.00 | 0.00 | 47 | 1015.2 |
| 20260508174439 | 18 | 311 | 3.2 | 9.7 | 0.00 | 0.00 | 0.00 | 46 | 1015.6 |
| 20260508173936 | 18 | 75 | 3.2 | 4.8 | 0.00 | 0.00 | 0.00 | 50 | 1015.7 |
| 20260508173433 | 18 | 356 | 3.2 | 3.2 | 0.00 | 0.00 | 0.00 | 49 | 1015.7 |
| 20260508172929 | 19 | 163 | 4.8 | 6.4 | 0.00 | 0.00 | 0.00 | 48 | 1015.9 |
| 20260508172427 | 19 | 16 | 1.6 | 6.4 | 0.00 | 0.00 | 0.00 | 49 | 1015.9 |
| 20260508171923 | 19 | 32 | 3.2 | 4.8 | 0.00 | 0.00 | 0.00 | 48 | 1016.0 |
| 20260508171419 | 19 | 44 | 1.6 | 3.2 | 0.00 | 0.00 | 0.00 | 48 | 1016.0 |
| 20260508170916 | 20 | 31 | 1.6 | 3.2 | 0.00 | 0.00 | 0.00 | 49 | 1016.3 |
| 20260508170413 | 20 | 37 | 3.2 | 9.7 | 0.00 | 0.00 | 0.00 | 49 | 1015.9 |
| 20260508165910 | 20 | 50 | 3.2 | 6.4 | 0.00 | 0.00 | 0.00 | 49 | 1016.3 |
| 20260508165408 | 20 | 174 | 6.4 | 11.3 | 0.00 | 0.00 | 0.00 | 46 | 1016.3 |
| 20260508164903 | 20 | 39 | 3.2 | 6.4 | 0.00 | 0.00 | 0.00 | 49 | 1016.4 |
| 20260508164401 | 20 | 59 | 3.2 | 11.3 | 0.00 | 0.00 | 0.00 | 50 | 1016.6 |
| 20260508163858 | 20 | 49 | 3.2 | 12.9 | 0.00 | 0.00 | 0.00 | 48 | 1016.7 |
| 20260508163356 | 19 | 72 | 6.4 | 9.7 | 0.00 | 0.00 | 0.00 | 49 | 1016.3 |
| 20260508162851 | 19 | 14 | 1.6 | 9.7 | 0.00 | 0.00 | 0.00 | 47 | 1016.6 |
| 20260508162349 | 20 | 65 | 4.8 | 6.4 | 0.00 | 0.00 | 0.00 | 48 | 1016.5 |
| 20260508161845 | 20 | 44 | 3.2 | 3.2 | 0.00 | 0.00 | 0.00 | 47 | 1016.6 |
| 20260508161343 | 20 | 85 | 4.8 | 6.4 | 0.00 | 0.00 | 0.00 | 48 | 1016.7 |
| 20260508160840 | 20 | 26 | 1.6 | 6.4 | 0.00 | 0.00 | 0.00 | 50 | 1016.9 |
| 20260508160338 | 19 | 58 | 3.2 | 6.4 | 0.00 | 0.00 | 0.00 | 51 | 1017.0 |
| 20260508155835 | 19 | 333 | 3.2 | 6.4 | 0.00 | 0.00 | 0.00 | 51 | 1017.0 |
| 20260508155332 | 19 | 41 | 1.6 | 4.8 | 0.00 | 0.00 | 0.00 | 53 | 1017.0 |
| 20260508154829 | 19 | 181 | 4.8 | 4.8 | 0.00 | 0.00 | 0.00 | 50 | 1017.0 |
| 20260508154327 | 19 | 333 | 3.2 | 9.7 | 0.00 | 0.00 | 0.00 | 52 | 1017.0 |
| 20260508153823 | 18 | 59 | 3.2 | 4.8 | 0.00 | 0.00 | 0.00 | 49 | 1017.1 |
| 20260508153321 | 18 | 80 | 4.8 | 9.7 | 0.00 | 0.00 | 0.00 | 48 | 1017.2 |
| 20260508152816 | 18 | 350 | 4.8 | 4.8 | 0.00 | 0.00 | 0.00 | 54 | 1017.0 |
| 20260508152313 | 18 | 29 | 3.2 | 11.3 | 0.00 | 0.00 | 0.00 | 50 | 1017.3 |
| 20260508151809 | 19 | 95 | 4.8 | 6.4 | 0.00 | 0.00 | 0.00 | 55 | 1017.6 |
| 20260508151306 | 18 | 29 | 1.6 | 3.2 | 0.00 | 0.00 | 0.00 | 51 | 1017.3 |
| 20260508150802 | 17 | 144 | 3.2 | 4.8 | 0.00 | 0.00 | 0.00 | 51 | 1017.2 |
| 20260508150259 | 17 | 160 | 4.8 | 9.7 | 0.00 | 0.00 | 0.00 | 51 | 1017.5 |
| 20260508145756 | 17 | 123 | 4.8 | 6.4 | 0.00 | 0.00 | 0.00 | 52 | 1017.5 |
| 20260508145251 | 17 | 55 | 3.2 | 6.4 | 0.00 | 0.00 | 0.00 | 52 | 1017.4 |
| 20260508144748 | 17 | 43 | 1.6 | 4.8 | 0.00 | 0.00 | 0.00 | 51 | 1017.4 |
| 20260508144246 | 17 | 7 | 1.6 | 3.2 | 0.00 | 0.00 | 0.00 | 55 | 1017.4 |
| 20260508143744 | 17 | 29 | 1.6 | 3.2 | 0.00 | 0.00 | 0.00 | 50 | 1017.7 |
| 20260508143241 | 17 | 37 | 1.6 | 6.4 | 0.00 | 0.00 | 0.00 | 49 | 1017.4 |
| 20260508142737 | 17 | 79 | 1.6 | 3.2 | 0.00 | 0.00 | 0.00 | 54 | 1017.4 |
| 20260508142234 | 17 | 38 | 3.2 | 4.8 | 0.00 | 0.00 | 0.00 | 55 | 1017.6 |
| 20260508141730 | 16 | 28 | 1.6 | 3.2 | 0.00 | 0.00 | 0.00 | 56 | 1017.7 |
| 20260508141228 | 16 | 10 | 4.8 | 6.4 | 0.00 | 0.00 | 0.00 | 53 | 1017.6 |
| 20260508140725 | 16 | 83 | 3.2 | 6.4 | 0.00 | 0.00 | 0.00 | 53 | 1018.0 |
| 20260508140222 | 16 | 73 | 4.8 | 4.8 | 0.00 | 0.00 | 0.00 | 53 | 1017.7 |
| 20260508135718 | 15 | 42 | 1.6 | 9.7 | 0.00 | 0.00 | 0.00 | 55 | 1017.8 |
| 20260508135213 | 15 | 80 | 3.2 | 3.2 | 0.00 | 0.00 | 0.00 | 55 | 1017.8 |
| 20260508134709 | 15 | 25 | 1.6 | 3.2 | 0.00 | 0.00 | 0.00 | 60 | 1017.8 |
| 20260508134206 | 15 | 41 | 1.6 | 3.2 | 0.00 | 0.00 | 0.00 | 61 | 1017.9 |
| 20260508133703 | 14 | 33 | 1.6 | 1.6 | 0.00 | 0.00 | 0.00 | 62 | 1017.9 |
| 20260508133201 | 13 | 55 | 3.2 | 3.2 | 0.00 | 0.00 | 0.00 | 66 | 1018.0 |
| 20260508132658 | 12 | 37 | 1.6 | 1.6 | 0.00 | 0.00 | 0.00 | 66 | 1018.0 |
| 20260508132155 | 12 | 38 | 1.6 | 3.2 | 0.00 | 0.00 | 0.00 | 67 | 1018.0 |
| 20260508131651 | 12 | 50 | 1.6 | 3.2 | 0.00 | 0.00 | 0.00 | 65 | 1017.8 |
| 20260508131147 | 13 | 45 | 1.6 | 3.2 | 0.00 | 0.00 | 0.00 | 65 | 1017.9 |
| 20260508130644 | 12 | 38 | 1.6 | 4.8 | 0.00 | 0.00 | 0.00 | 66 | 1017.9 |
| 20260508130141 | 12 | 36 | 1.6 | 1.6 | 0.00 | 0.00 | 0.00 | 68 | 1018.1 |
| 20260508125637 | 12 | 41 | 1.6 | 3.2 | 0.00 | 0.00 | 0.00 | 69 | 1017.8 |
| 20260508125134 | 12 | 38 | 1.6 | 1.6 | 0.00 | 0.00 | 0.00 | 68 | 1018.1 |
| 20260508124632 | 11 | 32 | 1.6 | 3.2 | 0.00 | 0.00 | 0.00 | 68 | 1018.1 |
| 20260508124129 | 11 | 41 | 1.6 | 1.6 | 0.00 | 0.00 | 0.00 | 70 | 1018.0 |
| 20260508123627 | 11 | 37 | 1.6 | 3.2 | 0.00 | 0.00 | 0.00 | 69 | 1017.8 |
| 20260508123124 | 11 | 41 | 1.6 | 3.2 | 0.00 | 0.00 | 0.00 | 71 | 1017.9 |
| 20260508122620 | 10 | 37 | 1.6 | 3.2 | 0.00 | 0.00 | 0.00 | 71 | 1018.0 |
| 20260508122118 | 10 | 42 | 1.6 | 3.2 | 0.00 | 0.00 | 0.00 | 73 | 1017.9 |
| 20260508121616 | 10 | 39 | 1.6 | 1.6 | 0.00 | 0.00 | 0.00 | 72 | 1017.8 |
| 20260508121114 | 10 | 42 | 1.6 | 3.2 | 0.00 | 0.00 | 0.00 | 73 | 1017.8 |
| 20260508120611 | 10 | 31 | 0.0 | 3.2 | 0.00 | 0.00 | 0.00 | 73 | 1018.0 |
| 20260508120109 | 10 | 30 | 0.0 | 1.6 | 0.00 | 0.00 | 0.00 | 74 | 1017.7 |
| 20260508115606 | 9 | 30 | 0.0 | 1.6 | 0.00 | 0.00 | 0.00 | 75 | 1017.8 |
| 20260508115103 | 8 | 32 | 1.6 | 3.2 | 0.00 | 0.00 | 0.00 | 76 | 1017.7 |
| 20260508114600 | 8 | 19 | 1.6 | 1.6 | 0.00 | 0.00 | 0.00 | 78 | 1017.8 |
| 20260508114055 | 8 | 21 | 0.0 | 1.6 | 0.00 | 0.00 | 0.00 | 78 | 1017.7 |
| 20260508113553 | 8 | 29 | 0.0 | 1.6 | 0.00 | 0.00 | 0.00 | 78 | 1017.6 |
| 20260508113051 | 8 | 34 | 1.6 | 1.6 | 0.00 | 0.00 | 0.00 | 78 | 1017.5 |
| 20260508112547 | 8 | 20 | 0.0 | 1.6 | 0.00 | 0.00 | 0.00 | 78 | 1017.5 |
| 20260508112044 | 8 | 13 | 0.0 | 1.6 | 0.00 | 0.00 | 0.00 | 79 | 1017.6 |
| 20260508111541 | 8 | 28 | 0.0 | 3.2 | 0.00 | 0.00 | 0.00 | 78 | 1017.5 |
| 20260508111038 | 8 | 30 | 1.6 | 1.6 | 0.00 | 0.00 | 0.00 | 79 | 1017.3 |
| 20260508110536 | 8 | 44 | 1.6 | 3.2 | 0.00 | 0.00 | 0.00 | 81 | 1017.2 |
| 20260508110032 | 8 | 33 | 1.6 | 1.6 | 0.00 | 0.00 | 0.00 | 82 | 1017.4 |
| 20260508105527 | 7 | 42 | 1.6 | 3.2 | 0.00 | 0.00 | 0.00 | 81 | 1017.2 |
| 20260508105025 | 7 | 23 | 1.6 | 1.6 | 0.00 | 0.00 | 0.00 | 85 | 1017.3 |
| 20260508104523 | 7 | 16 | 0.0 | 1.6 | 0.00 | 0.00 | 0.00 | 87 | 1017.3 |
| 20260508104018 | 6 | 12 | 0.0 | 0.0 | 0.00 | 0.00 | 0.00 | 89 | 1017.5 |
| 20260508103516 | 6 | 12 | 0.0 | 0.0 | 0.00 | 0.00 | 0.00 | 89 | 1017.4 |
| 20260508103013 | 6 | 12 | 0.0 | 0.0 | 0.00 | 0.00 | 0.00 | 90 | 1017.3 |
| 20260508102511 | 6 | 12 | 0.0 | 0.0 | 0.00 | 0.00 | 0.00 | 91 | 1017.3 |
| 20260508102008 | 6 | 12 | 0.0 | 0.0 | 0.00 | 0.00 | 0.00 | 91 | 1017.3 |
| 20260508101505 | 6 | 12 | 0.0 | 0.0 | 0.00 | 0.00 | 0.00 | 90 | 1017.4 |
| 20260508101002 | 6 | 11 | 0.0 | 1.6 | 0.00 | 0.00 | 0.00 | 89 | 1017.3 |
| 20260508100501 | 6 | 13 | 0.0 | 0.0 | 0.00 | 0.00 | 0.00 | 87 | 1017.3 |
| 20260508095956 | 6 | 12 | 0.0 | 0.0 | 0.00 | 0.00 | 0.00 | 88 | 1017.4 |
| 20260508095454 | 6 | 12 | 0.0 | 0.0 | 0.00 | 0.00 | 0.00 | 89 | 1017.4 |
| 20260508094951 | 6 | 12 | 0.0 | 0.0 | 0.00 | 0.00 | 0.00 | 90 | 1017.4 |
| 20260508094448 | 6 | 12 | 0.0 | 0.0 | 0.00 | 0.00 | 0.00 | 91 | 1017.3 |
| 20260508093944 | 6 | 11 | 0.0 | 0.0 | 0.00 | 0.00 | 0.00 | 90 | 1017.5 |
| 20260508093442 | 6 | 11 | 0.0 | 0.0 | 0.00 | 0.00 | 0.00 | 90 | 1017.5 |
| 20260508092940 | 6 | 11 | 1.6 | 1.6 | 0.00 | 0.00 | 0.00 | 89 | 1017.6 |
| 20260508092437 | 6 | 19 | 0.0 | 0.0 | 0.00 | 0.00 | 0.00 | 87 | 1017.3 |
| 20260508091936 | 7 | 20 | 0.0 | 0.0 | 0.00 | 0.00 | 0.00 | 85 | 1017.1 |
| 20260508091432 | 7 | 20 | 0.0 | 0.0 | 0.00 | 0.00 | 0.00 | 85 | 1017.3 |
| 20260508090929 | 7 | 29 | 0.0 | 1.6 | 0.00 | 0.00 | 0.00 | 83 | 1017.4 |
| 20260508090428 | 6 | 24 | 0.0 | 1.6 | 0.00 | 0.00 | 0.00 | 86 | 1017.3 |
| 20260508085923 | 6 | 34 | 1.6 | 1.6 | 0.00 | 0.00 | 0.00 | 90 | 1017.3 |
| 20260508085420 | 5 | 26 | 1.6 | 1.6 | 0.00 | 0.00 | 0.00 | 94 | 1017.5 |
| 20260508084917 | 5 | 23 | 0.0 | 0.0 | 0.00 | 0.00 | 0.00 | 92 | 1017.5 |
| 20260508084413 | 5 | 23 | 0.0 | 0.0 | 0.00 | 0.00 | 0.00 | 92 | 1017.4 |
| 20260508083911 | 4 | 23 | 0.0 | 0.0 | 0.00 | 0.00 | 0.00 | 92 | 1017.4 |
| 20260508083409 | 4 | 23 | 0.0 | 0.0 | 0.00 | 0.00 | 0.00 | 92 | 1017.5 |
| 20260508082908 | 4 | 23 | 0.0 | 0.0 | 0.00 | 0.00 | 0.00 | 92 | 1017.6 |
| 20260508082406 | 4 | 23 | 0.0 | 0.0 | 0.00 | 0.00 | 0.00 | 92 | 1017.2 |
| 20260508081903 | 4 | 23 | 0.0 | 0.0 | 0.00 | 0.00 | 0.00 | 92 | 1017.3 |
| 20260508081400 | 4 | 23 | 0.0 | 0.0 | 0.00 | 0.00 | 0.00 | 91 | 1017.1 |
| 20260508080856 | 4 | 23 | 0.0 | 0.0 | 0.00 | 0.00 | 0.00 | 91 | 1017.2 |
| 20260508080355 | 5 | 23 | 0.0 | 0.0 | 0.00 | 0.00 | 0.00 | 90 | 1017.2 |
| 20260508075851 | 5 | 23 | 0.0 | 0.0 | 0.00 | 0.00 | 0.00 | 89 | 1017.3 |
| 20260508075348 | 5 | 24 | 0.0 | 0.0 | 0.00 | 0.00 | 0.00 | 88 | 1017.3 |
| 20260508074846 | 5 | 24 | 0.0 | 0.0 | 0.00 | 0.00 | 0.00 | 90 | 1017.3 |
| 20260508074343 | 5 | 24 | 0.0 | 0.0 | 0.00 | 0.00 | 0.00 | 91 | 1017.2 |
| 20260508073840 | 5 | 24 | 0.0 | 1.6 | 0.00 | 0.00 | 0.00 | 92 | 1017.2 |
| 20260508073338 | 5 | 23 | 0.0 | 0.0 | 0.00 | 0.00 | 0.00 | 93 | 1017.3 |
| 20260508072834 | 4 | 23 | 0.0 | 0.0 | 0.00 | 0.00 | 0.00 | 92 | 1017.3 |
| 20260508072330 | 4 | 23 | 0.0 | 0.0 | 0.00 | 0.00 | 0.00 | 91 | 1017.4 |
| 20260508071828 | 5 | 23 | 0.0 | 0.0 | 0.00 | 0.00 | 0.00 | 90 | 1017.3 |
| 20260508071326 | 5 | 23 | 0.0 | 0.0 | 0.00 | 0.00 | 0.00 | 90 | 1017.2 |
| 20260508070823 | 5 | 23 | 0.0 | 0.0 | 0.00 | 0.00 | 0.00 | 89 | 1017.3 |
| 20260508070322 | 5 | 23 | 0.0 | 0.0 | 0.00 | 0.00 | 0.00 | 88 | 1017.4 |
| 20260508065819 | 5 | 23 | 0.0 | 0.0 | 0.00 | 0.00 | 0.00 | 88 | 1017.4 |
| 20260508065317 | 5 | 23 | 0.0 | 0.0 | 0.00 | 0.00 | 0.00 | 88 | 1017.4 |
| 20260508064814 | 5 | 23 | 0.0 | 0.0 | 0.00 | 0.00 | 0.00 | 87 | 1017.6 |
| 20260508064312 | 5 | 23 | 0.0 | 0.0 | 0.00 | 0.00 | 0.00 | 87 | 1017.6 |
| 20260508063809 | 5 | 23 | 0.0 | 0.0 | 0.00 | 0.00 | 0.00 | 86 | 1017.8 |
| 20260508063307 | 5 | 23 | 0.0 | 0.0 | 0.00 | 0.00 | 0.00 | 85 | 1017.8 |
| 20260508062804 | 5 | 23 | 0.0 | 0.0 | 0.00 | 0.00 | 0.00 | 84 | 1017.8 |
| 20260508062305 | 5 | 23 | 0.0 | 0.0 | 0.00 | 0.00 | 0.00 | 83 | 1017.7 |
| 20260508061758 | 5 | 23 | 0.0 | 0.0 | 0.00 | 0.00 | 0.00 | 83 | 1018.0 |
| 20260508061255 | 5 | 23 | 0.0 | 0.0 | 0.00 | 0.00 | 0.00 | 83 | 1018.0 |
| 20260508060752 | 6 | 23 | 0.0 | 0.0 | 0.00 | 0.00 | 0.00 | 82 | 1017.9 |
| 20260508060250 | 6 | 23 | 0.0 | 0.0 | 0.00 | 0.00 | 0.00 | 83 | 1017.9 |
| 20260508055745 | 6 | 23 | 0.0 | 0.0 | 0.00 | 0.00 | 0.00 | 82 | 1017.9 |
| 20260508055242 | 6 | 23 | 0.0 | 0.0 | 0.00 | 0.00 | 0.00 | 82 | 1017.9 |
| 20260508054739 | 6 | 23 | 0.0 | 0.0 | 0.00 | 0.00 | 0.00 | 81 | 1018.0 |
| 20260508054237 | 6 | 23 | 0.0 | 0.0 | 0.00 | 0.00 | 0.00 | 81 | 1017.9 |
| 20260508053734 | 6 | 23 | 0.0 | 0.0 | 0.00 | 0.00 | 0.00 | 81 | 1018.0 |
| 20260508053231 | 6 | 23 | 0.0 | 0.0 | 0.00 | 0.00 | 0.00 | 81 | 1017.8 |
| 20260508052728 | 7 | 23 | 0.0 | 0.0 | 0.00 | 0.00 | 0.00 | 80 | 1017.8 |
| 20260508052225 | 7 | 23 | 0.0 | 0.0 | 0.00 | 0.00 | 0.00 | 81 | 1017.8 |
| 20260508051721 | 7 | 23 | 0.0 | 1.6 | 0.00 | 0.00 | 0.00 | 82 | 1017.9 |
| 20260508051217 | 7 | 23 | 0.0 | 0.0 | 0.00 | 0.00 | 0.00 | 81 | 1017.8 |
| 20260508050714 | 7 | 23 | 0.0 | 0.0 | 0.00 | 0.00 | 0.00 | 79 | 1018.0 |
| 20260508050212 | 7 | 23 | 0.0 | 0.0 | 0.00 | 0.00 | 0.00 | 78 | 1017.9 |
| 20260508045711 | 8 | 24 | 0.0 | 1.6 | 0.00 | 0.00 | 0.00 | 78 | 1017.9 |
| 20260508045210 | 8 | 25 | 0.0 | 1.6 | 0.00 | 0.00 | 0.00 | 76 | 1018.0 |
| 20260508044707 | 8 | 29 | 1.6 | 1.6 | 0.00 | 0.00 | 0.00 | 78 | 1018.0 |
| 20260508044203 | 8 | 29 | 0.0 | 1.6 | 0.00 | 0.00 | 0.00 | 77 | 1017.7 |
| 20260508043659 | 8 | 29 | 0.0 | 1.6 | 0.00 | 0.00 | 0.00 | 76 | 1017.7 |
| 20260508043158 | 8 | 30 | 0.0 | 1.6 | 0.00 | 0.00 | 0.00 | 76 | 1017.9 |
| 20260508042654 | 8 | 30 | 1.6 | 1.6 | 0.00 | 0.00 | 0.00 | 75 | 1017.8 |
| 20260508042151 | 8 | 24 | 0.0 | 0.0 | 0.00 | 0.00 | 0.00 | 74 | 1017.8 |
| 20260508041647 | 9 | 33 | 0.0 | 1.6 | 0.00 | 0.00 | 0.00 | 71 | 1017.6 |
| 20260508041144 | 9 | 33 | 0.0 | 1.6 | 0.00 | 0.00 | 0.00 | 71 | 1017.8 |
| 20260508040641 | 9 | 32 | 1.6 | 1.6 | 0.00 | 0.00 | 0.00 | 76 | 1017.6 |
| 20260508040138 | 9 | 32 | 1.6 | 1.6 | 0.00 | 0.00 | 0.00 | 71 | 1017.7 |
| 20260508035636 | 9 | 38 | 1.6 | 3.2 | 0.00 | 0.00 | 0.00 | 76 | 1017.5 |
| 20260508035133 | 9 | 31 | 0.0 | 1.6 | 0.00 | 0.00 | 0.00 | 75 | 1017.7 |
| 20260508034630 | 9 | 31 | 0.0 | 1.6 | 0.00 | 0.00 | 0.00 | 72 | 1017.7 |
| 20260508034127 | 9 | 31 | 1.6 | 1.6 | 0.00 | 0.00 | 0.00 | 70 | 1017.6 |
| 20260508033624 | 9 | 31 | 1.6 | 1.6 | 0.00 | 0.00 | 0.00 | 77 | 1017.7 |
| 20260508033122 | 9 | 25 | 0.0 | 1.6 | 0.00 | 0.00 | 0.00 | 76 | 1017.7 |
| 20260508032618 | 9 | 24 | 0.0 | 0.0 | 0.00 | 0.00 | 0.00 | 72 | 1017.9 |
| 20260508032116 | 9 | 39 | 0.0 | 1.6 | 0.00 | 0.00 | 0.00 | 76 | 1017.8 |
| 20260508031613 | 10 | 40 | 0.0 | 1.6 | 0.00 | 0.00 | 0.00 | 72 | 1017.6 |
| 20260508031109 | 10 | 41 | 1.6 | 1.6 | 0.00 | 0.00 | 0.00 | 69 | 1017.6 |
| 20260508030605 | 10 | 40 | 1.6 | 1.6 | 0.00 | 0.00 | 0.00 | 72 | 1017.6 |
| 20260508030104 | 10 | 35 | 1.6 | 1.6 | 0.00 | 0.00 | 0.00 | 69 | 1017.6 |
| 20260508025559 | 9 | 33 | 0.0 | 1.6 | 0.00 | 0.00 | 0.00 | 68 | 1017.9 |
| 20260508025057 | 9 | 34 | 0.0 | 1.6 | 0.00 | 0.00 | 0.00 | 73 | 1017.8 |
| 20260508024552 | 9 | 24 | 0.0 | 1.6 | 0.00 | 0.00 | 0.00 | 75 | 1017.9 |
| 20260508024050 | 9 | 24 | 0.0 | 0.0 | 0.00 | 0.00 | 0.00 | 75 | 1017.8 |
| 20260508023546 | 9 | 24 | 1.6 | 1.6 | 0.00 | 0.00 | 0.00 | 73 | 1017.8 |
| 20260508023044 | 9 | 24 | 0.0 | 1.6 | 0.00 | 0.00 | 0.00 | 76 | 1017.7 |
| 20260508022539 | 9 | 24 | 0.0 | 1.6 | 0.00 | 0.00 | 0.00 | 76 | 1017.5 |
| 20260508022037 | 9 | 24 | 0.0 | 1.6 | 0.00 | 0.00 | 0.00 | 74 | 1017.4 |
| 20260508021532 | 10 | 24 | 0.0 | 0.0 | 0.00 | 0.00 | 0.00 | 75 | 1017.7 |
| 20260508021028 | 10 | 24 | 0.0 | 1.6 | 0.00 | 0.00 | 0.00 | 72 | 1017.6 |
| 20260508020526 | 10 | 24 | 0.0 | 1.6 | 0.00 | 0.00 | 0.00 | 71 | 1017.4 |
| 20260508020024 | 10 | 24 | 1.6 | 1.6 | 0.00 | 0.00 | 0.00 | 70 | 1017.4 |
| 20260508015521 | 10 | 23 | 0.0 | 1.6 | 0.00 | 0.00 | 0.00 | 73 | 1017.5 |
| 20260508015018 | 10 | 23 | 0.0 | 1.6 | 0.00 | 0.00 | 0.00 | 73 | 1017.6 |
| 20260508014514 | 10 | 23 | 0.0 | 1.6 | 0.00 | 0.00 | 0.00 | 76 | 1017.6 |
| 20260508014010 | 10 | 23 | 0.0 | 0.0 | 0.00 | 0.00 | 0.00 | 71 | 1017.6 |
| 20260508013506 | 10 | 23 | 0.0 | 0.0 | 0.00 | 0.00 | 0.00 | 68 | 1017.7 |
| 20260508013004 | 10 | 23 | 0.0 | 1.6 | 0.00 | 0.00 | 0.00 | 73 | 1017.6 |
| 20260508012501 | 10 | 23 | 0.0 | 0.0 | 0.00 | 0.00 | 0.00 | 71 | 1017.5 |
| 20260508011958 | 10 | 23 | 0.0 | 0.0 | 0.00 | 0.00 | 0.00 | 70 | 1017.6 |
| 20260508011456 | 10 | 23 | 0.0 | 0.0 | 0.00 | 0.00 | 0.00 | 70 | 1017.4 |
| 20260508010953 | 10 | 23 | 0.0 | 0.0 | 0.00 | 0.00 | 0.00 | 69 | 1017.6 |
| 20260508010450 | 10 | 23 | 0.0 | 0.0 | 0.00 | 0.00 | 0.00 | 66 | 1017.3 |
| 20260508005947 | 10 | 23 | 0.0 | 0.0 | 0.00 | 0.00 | 0.00 | 68 | 1017.4 |
| 20260508005444 | 11 | 23 | 0.0 | 0.0 | 0.00 | 0.00 | 0.00 | 70 | 1017.3 |
| 20260508004940 | 11 | 23 | 0.0 | 0.0 | 0.00 | 0.00 | 0.00 | 65 | 1017.2 |
| 20260508004437 | 11 | 23 | 0.0 | 0.0 | 0.00 | 0.00 | 0.00 | 65 | 1017.6 |
| 20260508003933 | 11 | 23 | 0.0 | 0.0 | 0.00 | 0.00 | 0.00 | 64 | 1017.5 |
| 20260508003430 | 11 | 23 | 0.0 | 0.0 | 0.00 | 0.00 | 0.00 | 64 | 1017.4 |
| 20260508002928 | 12 | 23 | 0.0 | 0.0 | 0.00 | 0.00 | 0.00 | 56 | 1017.1 |
| 20260508002424 | 12 | 23 | 0.0 | 0.0 | 0.00 | 0.00 | 0.00 | 53 | 1017.3 |
| 20260508001920 | 12 | 23 | 0.0 | 0.0 | 0.00 | 0.00 | 0.00 | 51 | 1017.1 |
| 20260508001417 | 12 | 21 | 0.0 | 0.0 | 0.00 | 0.00 | 0.00 | 51 | 1017.2 |
| 20260508000913 | 12 | 24 | 0.0 | 1.6 | 0.00 | 0.00 | 0.00 | 50 | 1017.3 |
| 20260508000412 | 13 | 16 | 0.0 | 1.6 | 0.00 | 0.00 | 0.00 | 48 | 1017.1 |
| 20260507235906 | 13 | 21 | 0.0 | 0.0 | 0.00 | 0.00 | 0.00 | 47 | 1017.3 |
| 20260507235403 | 13 | 12 | 0.0 | 0.0 | 0.00 | 0.00 | 0.00 | 47 | 1017.0 |
| 20260507234900 | 13 | 0 | 3.2 | 6.4 | 0.00 | 0.00 | 0.00 | 46 | 1017.0 |
| 20260507234359 | 13 | 12 | 0.0 | 1.6 | 0.00 | 0.00 | 0.00 | 47 | 1017.1 |
| 20260507233853 | 13 | 5 | 0.0 | 1.6 | 0.00 | 0.00 | 0.00 | 51 | 1017.1 |
| 20260507233351 | 13 | 26 | 0.0 | 3.2 | 0.00 | 0.00 | 0.00 | 54 | 1017.0 |
| 20260507232849 | 13 | 11 | 1.6 | 3.2 | 0.00 | 0.00 | 0.00 | 51 | 1016.9 |
| 20260507232345 | 13 | 10 | 0.0 | 1.6 | 0.00 | 0.00 | 0.00 | 48 | 1017.0 |
| 20260507231843 | 14 | 29 | 0.0 | 1.6 | 0.00 | 0.00 | 0.00 | 49 | 1017.1 |